Pittsfield, IL

2:35 AM CDT on March 28, 2017 (GMT -0500)
Pittsfield Penstone Municipal

Weather History for KPPQ - January, 2009

Change the Weather History Date:

Monday, January 12, 2009

  Actual Average (KUIN) Record (KUIN)
Temperature  
Mean Temperature 30 °F -  
Max Temperature 35 °F 30 °F 63 °F (2005)
Min Temperature 26 °F 15 °F -20 °F (1918)
Degree Days  
Heating Degree Days 34    
Moisture  
Dew Point 27 °F    
Average Humidity 90    
Maximum Humidity 100    
Minimum Humidity 81    
Precipitation  
Precipitation 0.00 in - - ()
Sea Level Pressure  
Sea Level Pressure 30.07 in    
Wind  
Wind Speed 7 mph (SSE)    
Max Wind Speed 16 mph    
Max Gust Speed 17 mph    
Visibility 8 miles    
Events Snow    
Averages and records for this station are not official NWS values.
T = Trace of Precipitation, MM = Missing Value Source: NWS Daily Summary

Daily Weather History Graph

Daily Weather History Graph

Search for Another Location

Airport or City:

Trip Planner

Search our weather history database for the weather conditions in past years. The results will help you decide how hot, cold, wet, or windy it might be!

Date:

Astronomy

Jan. 12, 2009 Rise Set
Actual Time 7:23 AM CST 5:00 PM CST
Civil Twilight 6:53 AM CST 5:30 PM CST
Nautical Twilight 6:20 AM CST 6:03 PM CST
Astronomical Twilight 5:47 AM CST 6:35 PM CST
Moon 7:11 PM CST (1/12) 8:32 AM CST (1/12)
Length of Visible Light 10h 36m
Length of Day
9h 37m
Waning Gibbous, 96% of the Moon is Illuminated
Jan 12
Waning Gibbous
Jan 17
Last Quarter
Jan 26
New
Feb 2
First Quarter
Feb 9
Full

Hourly Weather History & Observations

Time (CST) Temp. Windchill Dew Point Humidity Pressure Visibility Wind Dir Wind Speed Gust Speed Precip Events Conditions
12:06 AM 28.4 °F 19.7 °F 24.8 °F 86% 30.19 in 10.0 mi NW 9.2 mph - N/A   Overcast
12:26 AM 28.4 °F 23.3 °F 24.8 °F 86% 30.19 in 10.0 mi WNW 4.6 mph - N/A   Overcast
1:06 AM 28.4 °F 19.7 °F 24.8 °F 86% 30.18 in 10.0 mi NNW 9.2 mph - N/A   Overcast
1:27 AM 26.6 °F 20.0 °F 24.8 °F 93% 30.17 in 10.0 mi NNW 5.8 mph - N/A   Overcast
1:46 AM 26.6 °F 19.1 °F 24.8 °F 93% 30.18 in 10.0 mi NNW 6.9 mph - N/A   Overcast
2:08 AM 26.6 °F 22.6 °F 24.8 °F 93% 30.18 in 10.0 mi North 3.5 mph - N/A   Overcast
2:26 AM 26.6 °F - 24.8 °F 93% 30.18 in 10.0 mi Calm Calm - N/A   Overcast
2:46 AM 26.6 °F 22.6 °F 24.8 °F 93% 30.18 in 10.0 mi North 3.5 mph - N/A   Overcast
3:06 AM 26.6 °F - 24.8 °F 93% 30.18 in 10.0 mi Calm Calm - N/A   Overcast
3:26 AM 26.6 °F - 24.8 °F 93% 30.18 in 10.0 mi Calm Calm - N/A   Overcast
3:48 AM 26.6 °F - 24.8 °F 93% 30.19 in 10.0 mi Calm Calm - N/A   Overcast
4:06 AM 26.6 °F 22.6 °F 24.8 °F 93% 30.18 in 10.0 mi WSW 3.5 mph - N/A   Overcast
4:26 AM 26.6 °F - 24.8 °F 93% 30.16 in 10.0 mi Calm Calm - N/A   Overcast
5:06 AM 26.6 °F - 24.8 °F 93% 30.14 in 10.0 mi Calm Calm - N/A   Overcast
5:26 AM 26.6 °F 22.6 °F 24.8 °F 93% 30.14 in 10.0 mi ESE 3.5 mph - N/A   Overcast
5:46 AM 26.6 °F 22.6 °F 24.8 °F 93% 30.15 in 10.0 mi SSW 3.5 mph - N/A   Overcast
6:06 AM 26.6 °F - 24.8 °F 93% 30.15 in 10.0 mi Calm Calm - N/A   Overcast
6:28 AM 26.6 °F 21.2 °F 24.8 °F 93% 30.14 in 7.0 mi ESE 4.6 mph - N/A   Overcast
6:46 AM 26.6 °F 21.2 °F 24.8 °F 93% 30.14 in 7.0 mi SE 4.6 mph - N/A   Overcast
7:06 AM 26.6 °F 20.0 °F 24.8 °F 93% 30.13 in 10.0 mi SE 5.8 mph - N/A   Overcast
7:26 AM 26.6 °F 20.0 °F 24.8 °F 93% 30.13 in 7.0 mi SE 5.8 mph - N/A   Overcast
7:46 AM 26.6 °F 18.2 °F 26.6 °F 100% 30.14 in 7.0 mi South 8.1 mph - N/A   Overcast
8:06 AM 26.6 °F 16.8 °F 26.6 °F 100% 30.13 in 7.0 mi SSE 10.4 mph - N/A   Mostly Cloudy
8:29 AM 28.4 °F 18.5 °F 24.8 °F 86% 30.13 in 7.0 mi SSE 11.5 mph - N/A   Mostly Cloudy
8:49 AM 28.4 °F 18.5 °F 26.6 °F 93% 30.13 in 7.0 mi SSE 11.5 mph - N/A   Scattered Clouds
9:06 AM 28.4 °F 18.5 °F 26.6 °F 93% 30.13 in 7.0 mi SSE 11.5 mph - N/A   Scattered Clouds
9:26 AM 28.4 °F 18.5 °F 26.6 °F 93% 30.13 in 7.0 mi SSE 11.5 mph - N/A   Mostly Cloudy
9:46 AM 28.4 °F 17.5 °F 26.6 °F 93% 30.13 in 7.0 mi SE 13.8 mph - N/A   Overcast
10:06 AM 28.4 °F 19.1 °F 26.6 °F 93% 30.13 in 7.0 mi SSE 10.4 mph - N/A   Overcast
10:26 AM 28.4 °F 18.5 °F 26.6 °F 93% 30.13 in 7.0 mi SE 11.5 mph - N/A   Overcast
10:46 AM 30.2 °F 20.8 °F 26.6 °F 86% 30.12 in 10.0 mi SSE 11.5 mph - N/A   Overcast
11:06 AM 30.2 °F 21.9 °F 26.6 °F 86% 30.11 in 10.0 mi SSE 9.2 mph - N/A   Overcast
11:26 AM 30.2 °F 21.3 °F 26.6 °F 86% 30.10 in 10.0 mi SSE 10.4 mph - N/A   Overcast
11:47 AM 30.2 °F 21.3 °F 26.6 °F 86% 30.08 in 7.0 mi SSE 10.4 mph - N/A   Overcast
12:06 PM 30.2 °F 21.9 °F 28.4 °F 93% 30.07 in 1.2 mi SSE 9.2 mph - N/A Snow Light Snow
12:26 PM 30.2 °F 21.9 °F 28.4 °F 93% 30.03 in 1.8 mi East 9.2 mph - N/A Snow Light Snow
12:46 PM 30.2 °F 21.3 °F 28.4 °F 93% 30.02 in 7.0 mi SE 10.4 mph - N/A   Overcast
1:07 PM 30.2 °F 21.3 °F 28.4 °F 93% 30.00 in 7.0 mi SE 10.4 mph - N/A   Overcast
1:26 PM 30.2 °F 20.2 °F 28.4 °F 93% 29.99 in 7.0 mi SE 12.7 mph 17.3 mph N/A   Overcast
1:46 PM 30.2 °F 20.2 °F 28.4 °F 93% 29.96 in 7.0 mi SE 12.7 mph - N/A   Overcast
2:06 PM 32.0 °F 21.2 °F 28.4 °F 87% 29.94 in 7.0 mi ESE 16.1 mph - N/A   Overcast
2:26 PM 32.0 °F 21.2 °F 28.4 °F 87% 29.93 in 7.0 mi SE 16.1 mph - N/A   Mostly Cloudy
2:46 PM 33.8 °F 25.3 °F 28.4 °F 81% 29.91 in 7.0 mi SE 11.5 mph - N/A   Scattered Clouds
3:06 PM 33.8 °F 24.8 °F 28.4 °F 81% 29.91 in 7.0 mi SE 12.7 mph - N/A   Mostly Cloudy
3:26 PM 33.8 °F 25.3 °F 28.4 °F 81% 29.91 in 7.0 mi SE 11.5 mph - N/A   Overcast
3:46 PM 33.8 °F 24.8 °F 28.4 °F 81% 29.92 in 7.0 mi SSE 12.7 mph - N/A   Overcast
4:26 PM 33.8 °F 27.7 °F 28.4 °F 81% 29.93 in 7.0 mi SSE 6.9 mph - N/A   Mostly Cloudy
5:06 PM 33.8 °F - 30.2 °F 87% 29.93 in 7.0 mi Calm Calm - N/A   Overcast
5:26 PM 33.8 °F 30.8 °F 30.2 °F 87% 29.95 in 10.0 mi West 3.5 mph - N/A   Overcast
5:46 PM 33.8 °F - 30.2 °F 87% 29.95 in 10.0 mi Calm Calm - N/A   Overcast
6:06 PM 33.8 °F - 30.2 °F 87% 29.95 in 10.0 mi Calm Calm - N/A   Overcast
6:26 PM 32.0 °F - 30.2 °F 93% 29.95 in 7.0 mi Calm Calm - N/A   Overcast
6:46 PM 33.8 °F - 30.2 °F 87% 29.95 in 7.0 mi Calm Calm - N/A   Overcast
7:10 PM 33.8 °F - 30.2 °F 87% 29.95 in 10.0 mi Calm Calm - N/A   Scattered Clouds
7:26 PM 33.8 °F 30.8 °F 30.2 °F 87% 29.95 in 10.0 mi West 3.5 mph - N/A   Clear
7:46 PM 33.8 °F 27.7 °F 30.2 °F 87% 29.96 in 10.0 mi West 6.9 mph - N/A   Clear
8:06 PM 35.6 °F 28.0 °F 30.2 °F 81% 29.97 in 10.0 mi WNW 10.4 mph - N/A   Clear
8:26 PM 33.8 °F 26.4 °F 30.2 °F 87% 29.97 in 10.0 mi WNW 9.2 mph 16.1 mph N/A   Clear
9:06 PM 33.8 °F 28.6 °F 30.2 °F 87% 29.98 in 10.0 mi West 5.8 mph - N/A   Overcast
9:26 PM 33.8 °F 29.6 °F 30.2 °F 87% 29.98 in 10.0 mi West 4.6 mph - N/A   Overcast
9:47 PM 33.8 °F 30.8 °F 30.2 °F 87% 29.98 in 10.0 mi West 3.5 mph - N/A   Overcast
10:26 PM 35.6 °F 27.5 °F 30.2 °F 81% 29.99 in 10.0 mi West 11.5 mph 16.1 mph N/A   Overcast
11:07 PM 32.0 °F 19.2 °F 30.2 °F 93% 30.01 in 4.0 mi WNW 23.0 mph 29.9 mph N/A Rain Rain
11:26 PM 28.4 °F 14.1 °F 26.6 °F 93% 30.03 in 4.0 mi NW 24.2 mph 29.9 mph N/A Snow Light Snow
11:46 PM 26.6 °F 13.1 °F 24.8 °F 93% 30.05 in 5.0 mi WNW 19.6 mph 28.8 mph N/A Snow Light Snow